Weather History for Sussex, NJ

Change the Weather History Date:

Sunday, January 13, 2013

  Actual Average Record
Temperature  
Mean Temperature 40 °F -  
Max Temperature 43 °F 31 °F 59 °F (2005)
Min Temperature 36 °F 11 °F -22 °F (1968)
Degree Days  
Heating Degree Days 26    
Moisture  
Dew Point 38 °F    
Average Humidity 97    
Maximum Humidity 100    
Minimum Humidity 93    
Precipitation  
Precipitation 0.01 in - - ()
Sea Level Pressure  
Sea Level Pressure 30.07 in    
Wind  
Wind Speed 0 mph (WSW)    
Max Wind Speed 4 mph    
Max Gust Speed -    
Averages and records for this station are not official NWS values.
T = Trace of Precipitation, MM = Missing Value Source: NWS Daily Summary

Daily Weather History Graph

Daily Weather History Graph

Search for Another Location

Airport:

Trip Planner

Search our weather history database for the weather conditions in past years. The results will help you decide how hot, cold, wet, or windy it might be!

Date:

Astronomy

Jan. 13, 2013 Rise Set
Actual Time 7:22 AM EST 4:52 PM EST
Civil Twilight 6:51 AM EST 5:23 PM EST
Nautical Twilight 6:17 AM EST 5:57 PM EST
Astronomical Twilight 5:44 AM EST 6:30 PM EST
Moon 8:17 AM EST (1/13) 7:30 PM EST (1/13)
Length of Visible Light 10h 31m
Length of Day
9h 30m
Waxing Crescent, 5% of the Moon is Illuminated
Jan 13
Waxing Crescent
Jan 18
First Quarter
Jan 26
Full
Feb 3
Last Quarter
Feb 10
New

Hourly Weather History & Observations

Time (EST) Temp. Windchill Dew Point Humidity Pressure Visibility Wind Dir Wind Speed Gust Speed Precip Events Conditions
1:53 AM 37.0 °F - 36.0 °F 96% 30.13 in 0.2 mi Calm Calm - N/A Fog Fog
2:53 AM 37.0 °F - 35.1 °F 93% 30.12 in 0.2 mi Calm Calm - N/A Fog Fog
3:53 AM 37.0 °F - 36.0 °F 96% 30.12 in 0.2 mi Calm Calm - N/A Fog Fog
4:53 AM 36.0 °F - 35.1 °F 97% 30.10 in 0.2 mi Calm Calm - N/A Fog Fog
5:53 AM 37.0 °F - 36.0 °F 96% 30.09 in 0.2 mi Calm Calm - N/A Fog Fog
7:53 AM 37.0 °F - 36.0 °F 96% 30.11 in 0.2 mi Calm Calm - N/A Fog Fog
8:53 AM 37.0 °F - 36.0 °F 96% 30.13 in 0.2 mi Calm Calm - N/A Fog Fog
9:53 AM 37.9 °F - 37.0 °F 97% 30.13 in 0.2 mi Calm Calm - N/A Fog Fog
10:53 AM 39.0 °F - 37.9 °F 96% 30.13 in 0.2 mi Calm Calm - N/A Fog Fog
11:53 AM 39.0 °F - 37.9 °F 96% 30.11 in 0.2 mi Calm Calm - N/A Fog Fog
12:53 PM 39.0 °F - 39.0 °F 100% 30.07 in 0.2 mi Calm Calm - N/A Fog Fog
1:53 PM 41.0 °F - 39.9 °F 96% 30.06 in 0.2 mi Calm Calm - N/A Fog Fog
2:53 PM 42.1 °F 40.2 °F 41.0 °F 96% 30.04 in 0.2 mi WSW 3.5 mph - N/A Fog Fog
3:53 PM 42.1 °F - 41.0 °F 96% 30.04 in 0.2 mi Calm Calm - N/A Fog Fog
4:53 PM 41.0 °F - 41.0 °F 100% 30.03 in 0.2 mi Calm Calm - N/A Fog Fog
5:53 PM 43.0 °F 41.3 °F 42.1 °F 97% 30.03 in 0.8 mi WSW 3.5 mph - N/A   Overcast
6:53 PM 41.0 °F - 39.0 °F 93% 30.03 in 0.2 mi Calm Calm - N/A Fog Fog
7:53 PM 39.9 °F - 39.0 °F 97% 30.04 in 0.2 mi Calm Calm - N/A Fog Fog
8:53 PM 39.9 °F - 39.0 °F 97% 30.02 in 0.2 mi Calm Calm - N/A Fog Fog
9:53 PM 37.9 °F - 37.9 °F 100% 30.01 in 0.2 mi Calm Calm - 0.01 in Fog Fog
10:53 PM 39.0 °F - 37.9 °F 96% 30.01 in 0.5 mi Calm Calm - N/A Fog Fog
11:53 PM 37.9 °F - 37.0 °F 97% 30.00 in 0.5 mi Calm Calm - N/A Fog Fog